Location: Moscow
(55.7500°N, 37.5830°E)
Time: 16:47:26
(UTC+03:00)

Vanguard 2 Rocket - Pass Details

Date: 04 December 2021
Orbit: 553 x 3325 km, 32.9° (Epoch: 23 January)

Event Time Altitude Azimuth Distance (km) Brightness Sun altitude
Rises 18:37:39 0° 203° (SSW) 3,542 10.4 -20.7°
Reaches altitude 10° 18:42:25 10° 169° (S) 3,130 9.6 -21.4°
Maximum altitude 18:44:29 11° 153° (SSE) 3,278 9.5 -21.7°
Drops below altitude 10° 18:46:49 10° 138° (SE) 3,639 9.6 -22.0°
Enters shadow 18:47:16 10° 136° (SE) 3,726 9.7 -22.1°
